Location: Newark
(16.9667°N, 88.2167°W)
Time: 07:07:34
(UTC+00:00)

OTV 5 (USA 277) - Visible Passes

Search period start: 19 October 2019 00:00
Search period end: 29 October 2019 00:00
Orbit: 310 x 324 km, 54.5° (Epoch: 17 October)

Date Brightness Start Highest point End Pass type
(mag) Time Alt. Az. Time Alt. Az. Time Alt. Az.
21 Oct ? 11:27:01 10° N 11:29:11 21° NE 11:31:21 10° ESE visible
23 Oct ? 00:42:54 10° S 00:43:42 17° S 00:43:42 17° S visible
23 Oct ? 10:23:00 10° NNE 10:23:58 11° NE 10:24:56 10° ENE visible
24 Oct ? 00:57:18 10° SW 00:58:53 27° WSW 00:58:53 27° WSW visible
24 Oct ? 10:37:40 31° N 10:38:34 45° NE 10:41:11 10° SE visible
25 Oct ? 10:52:51 29° WSW 10:53:02 29° WSW 10:55:26 10° S visible
25 Oct ? 23:52:01 10° SSW 23:54:42 84° ESE 23:57:24 10° NE visible
27 Oct ? 00:07:12 10° W 00:09:14 19° NW 00:11:15 10° N visible
